Погода в Лепеле

Погода в Лепеле : погода сейчас, прогноз погоды и архив. Всё, что Вы хотите узнать о погоде в Лепеле!

Хотите узнать прогноз погоды в Лепеле? Тогда Вам сюда: Погода в Лепеле

Поиск расширенной информации на нашем сайте:

Полезная информация: Колесные краны автомобильные либхер аренда автокранов.

Другие новости

Новости СМИ2

Главная страница сайта

Новости сайта

03.07.2017

Напоминаем, что на нашем специализированном сайте Метеоцентр.Азия вы можете получить высокодетализированные автоматические прогнозы погоды по пунктам России, СНГ и мира в авиационном формате (включающие направление и скорость ветра, видимость, явления погоды, количество и форму облачности, нижнюю и верхнюю границу облачности).

Рекомендуем: диски bmw

Погода в Лепеле - сегодня

Время (UTC), дата Ветер
(°,м/с) 
Видим.   Явления Облачность Т
(°С)
Тd
(°С)
f(%) Тe
(°С)
Pmin
(гПа)
dP
(гПа)
Po
(мм)
O2
(г/м3)
Тmin Tmax R s Состояние
почвы
06 08.02.18 120 (ЮВ) 6000 м  слаб. переохл. морось (гололёд)  10/10 300 м 
[St]
-4.6 -5.2 96 -6  1023.2    751  308  -5.5    0.3  13  равномерный
мокрый или
старый снег
100% 
18 08.02.18 120 (ЮВ) 7000 м  дымка{снег, морось}  10/0 средняя 
[As op]
-2 -2.9 94 -3  1020.8    749  304    -1.4  17   
06 09.02.18 060 (СВ) 15000 м    8/0 средняя 
[Ac trans]
-4.9 -6.6 88 -6  1020.1    748  308  -4.9      17  равномерный
сухой снег
100% 
18 09.02.18 040 (СВ) 10 км  {снег}  10/10 360 м 
[St]
-4.3 -5.5 91 -6  1019.6    748  307    -3.7  0.3  17   
06 10.02.18 040 (СВ) 4400 м  слаб. снег  10/10 210 м 
[Frnb|Ns]
-4.5 -5.8 91 -6  1018.2    747  307  -4.6    18  равномерный
сухой снег
100% 
18 10.02.18 тихо ()   10 км  {снег}  10/10 480 м 
[St]
-3.9 -4.7 94 -4  1017.1    746  306    -3.2  0.0  18   
06 11.02.18 тихо ()   5000 м  слаб. снег  10/10 330 м 
[Frnb|Ns]
-4.4 -5 96 -4  1014    744  305  -4.4    0.5  18  равномерный
сухой снег
100% 
18 11.02.18 170 (Ю) 13000 м  {снег}  9/9 630 м 
[Sc]
-2.7 -4.3 89 -2  1013.1    743  303    -1.4  0.5  18   
06 12.02.18 тихо ()   10 км    9/9 540 м 
[Sc]
-3.4 -4.2 94 -3  1015.5    745  304  -3.4      18  равномерный
сухой снег
100% 
18 12.02.18 110 (В) 5000 м  слаб. снег  10/10 180 м 
[Ns]
-0.5 -1.1 96 1016.3    746  301    +0.9  0.0  17   
06 13.02.18 130 (ЮВ) 12000 м  {снег}  10/10 270 м 
[St]
-3.5 -5.3 87 -3  1019.2    748  306  -3.5    0.8  18  равномерный
сухой снег
100% 
18 13.02.18 100 (В) 10 км  {снег}  10/0 средняя 
[As op]
-5 -10.8 64 -6  1021.6    749  309    -1.6  0.0  18   
06 14.02.18 090 (В) 10 км    8/0 верхняя 
[Ci fib]
-12.1 -12.7 95 -14  1024.1    751  318  -12.1      18  равномерный
сухой снег
100% 
18 14.02.18 110 (В) 10 км    9/9 900 м 
[Sc]
-8 -10.7 81 -8  1027.9    754  314    -4.6    18   
06 15.02.18 080 (В) 5000 м  слаб. снег  10/0 средняя 
[As op]
-9.7 -10.9 91 -10  1029.9    755  317  -13.2    0.0  18  равномерный
сухой снег
100% 
18 15.02.18 140 (ЮВ) 10 км  {снег}  9/9 800 м 
[Sc]
-6.8 -9.2 83 -6  1029.7    755  313    -4.7  0.2  18   
06 16.02.18 150 (ЮВ) 3500 м  дымка  10/10 120 м 
[St]
-5 -5.3 98 -5  1026.8    753  310  -6.8      17  равномерный
сухой снег
100% 
18 16.02.18 190 (Ю) 4000 м  слаб. снег  10/10 210 м 
[Frnb|Ns]
-2.1 -2.4 98 -3  1022.9    751  305    -1.4  0.8  18   
06 17.02.18 180 (Ю) 10 км  {снег}  9/9 500 м 
[Sc]
-1.9 -2.1 99 -1  1020.2    749  304  -5    19  равномерный
сухой снег
100% 
18 17.02.18 180 (Ю) 6000 м  слаб. снег  10/10 330 м 
[Frnb|Ns]
-0.2 -0.5 98 1016.1    746  301    +0.4  23   
06 18.02.18 350 (С) 3000 м  снег  10/10 120 м 
[Frnb|Ns]
-1.9 -2.1 99 -3  1017.8    747  303  -1.9    0.6  24  равномерный
сухой снег
100% 
18 18.02.18 320 (СЗ) 10 км  {снег}  9/9 800 м 
[Sc]
-3.7 -5.2 89 -5  1021.9    750  307    -1.2  0.5  24   
06 19.02.18 260 (З) 4000 м  слаб. снег  10/0 средняя 
[As trans]
-6.5 -8.1 88 -8  1022.2    750  310  -6.5    0.3  25  равномерный
сухой снег
100% 
18 19.02.18 320 (СЗ) 10 км  {снег}  9/9 720 м 
[Sc]
-5.3 -6.7 90 -5  1023.8    751  309    -3  0.0  25   
06 20.02.18 290 (З) 13000 м    6/0 верхняя 
[Ci fib]
-8.6 -10.1 89 -8  1025.3    752  314  -8.6      24  равномерный
сухой снег
100% 
Время (UTC), дата Ветер
(°,м/с) 
Видим.   Явления Облачность Т
(°С)
Тd
(°С)
f(%) Тe
(°С)
Pmin
(гПа)
dP
(гПа)
Po
(мм)
O2
(г/м3)
Тmin Tmax R s Состояние
почвы

Для получения пояснительной информации подведите курсор к названию столбца.

ПОГОДА в Лепеле - архив

Всё, что Вы хотите узнать о погоде в Лепеле - удобно и подробно!

Выберите нужную дату (начиная с 1 января 2015* года) и нажмите кнопку "Найти".
Будут отображены архивные сводки погоды по пункту Лепель, начиная с указанной даты.


Отображать данные в формате CSV (для использования в таблицах Excel)


Внимание! Наш архив погоды предназначен исключительно для личного некоммерческого использования в познавательных целях. Если Вам необходимы официальные справки о состоянии погоды (для производственных, юридических, коммерческих и т.п. целей), обращайтесь в органы Росгидромета.

*Примечание: данная дата относится к архиву по метеостанциям СССР (Россия, СНГ, Балтия).
Архив по метеостанциям Зарубежной Европы и Азии (кроме Китая) хранится 10 дней, по другим регионам земного шара (Китай, Африка, Америка, Австралия, Океания) - 1 день.

Лепель - район местоположения метеостанции


Название, широта, долгота, высота метеостанции:
Лепель 54.9°ш. 28.7°д. 174 м над ур. моря [Беларусь]

Дополнительная информация

В oтличие oт бoльшинства пoгoдных сайтoв мы публикуем пoдрoбную метеoинфoрмацию в детальнoм прoфессиoнальнoм фoрмате.

Характеристики температуры и влажнoсти вoздуха измеряются на высoте 2 м в тени вдали oт зданий и деревьев.
Скoрoсть ветра измеряется на высoте 10 м (на урoвне рoста челoвека скoрoсть ветра ниже в 1.5-2 раза). Если метеoстанция нахoдится в гoрoде или в лесу, тo скoрoсть ветра занижена на 2-4 м/с пo сравнению с oткрытым местoм. Скoрoсть ветра над акватoриями крупных рек и oзёр, а также на вершинах хoлмoв на 2-5 м/с выше, чем в oбычных услoвиях.
Атмoсфернoе давление в разных тoчках местнoсти мoжет значительнo oтличаться oт давления на метеoстанции, в зависимoсти oт услoвий рельефа (при пoдъёме на 10 м давление пoнижается примернo на 1 мм рт.ст.).